Time,TemperatureF,DewpointF,PressureIn,WindDirection,WindDirectionDegrees,WindSpeedMPH,WindSpeedGustMPH,Humidity,HourlyPrecipIn,Conditions,Clouds,dailyrainin,SoftwareType,DateUTC
2013-10-22 00:01:00,52.1,49.8,30.10,SSE,158,0.0,5.0,92,0.00,,,0.00,Wunderground v.1.15,2013-10-22 04:01:00,
2013-10-22 00:05:00,52.2,50.2,30.10,SSE,158,0.0,5.0,93,0.00,,,0.00,Wunderground v.1.15,2013-10-22 04:05:00,
2013-10-22 00:10:00,52.4,50.4,30.10,SSE,158,0.0,5.0,93,0.00,,,0.00,Wunderground v.1.15,2013-10-22 04:10:00,
2013-10-22 00:15:00,52.6,50.3,30.10,SSE,158,0.0,5.0,92,0.00,,,0.00,Wunderground v.1.15,2013-10-22 04:15:00,
2013-10-22 00:20:00,52.7,50.4,30.10,SSE,158,0.0,5.0,92,0.00,,,0.00,Wunderground v.1.15,2013-10-22 04:20:00,
2013-10-22 00:25:00,52.8,50.5,30.10,SSE,158,0.0,5.0,92,0.00,,,0.00,Wunderground v.1.15,2013-10-22 04:25:00,
2013-10-22 00:30:00,52.8,50.5,30.10,SSE,158,0.0,5.0,92,0.00,,,0.00,Wunderground v.1.15,2013-10-22 04:30:00,
2013-10-22 00:40:00,52.7,50.4,30.11,SSE,158,0.0,5.0,92,0.00,,,0.00,Wunderground v.1.15,2013-10-22 04:40:00,
2013-10-22 00:45:00,52.6,50.6,30.11,SSE,158,0.0,5.0,93,0.00,,,0.00,Wunderground v.1.15,2013-10-22 04:45:00,
2013-10-22 00:50:00,52.4,50.4,30.11,SSE,158,0.0,5.0,93,0.00,,,0.00,Wunderground v.1.15,2013-10-22 04:50:00,
2013-10-22 01:05:00,52.1,50.4,30.11,SSE,158,0.0,5.0,94,0.00,,,0.00,Wunderground v.1.15,2013-10-22 05:05:00,
2013-10-22 01:10:00,52.1,50.4,30.11,SSE,158,0.0,5.0,94,0.00,,,0.00,Wunderground v.1.15,2013-10-22 05:10:00,
2013-10-22 01:15:00,52.0,50.3,30.10,SSE,158,0.0,5.0,94,0.00,,,0.00,Wunderground v.1.15,2013-10-22 05:15:00,
2013-10-22 01:20:00,52.0,50.3,30.10,SSE,158,0.0,5.0,94,0.00,,,0.00,Wunderground v.1.15,2013-10-22 05:20:00,
2013-10-22 01:25:00,51.9,50.5,30.10,SSE,158,0.0,5.0,95,0.00,,,0.00,Wunderground v.1.15,2013-10-22 05:25:00,
2013-10-22 01:30:00,51.9,50.5,30.11,SSE,158,0.0,5.0,95,0.00,,,0.00,Wunderground v.1.15,2013-10-22 05:30:00,
2013-10-22 01:35:00,51.9,50.5,30.11,SSE,158,0.0,5.0,95,0.00,,,0.00,Wunderground v.1.15,2013-10-22 05:35:00,
2013-10-22 01:40:00,51.9,50.5,30.11,SSE,158,0.0,5.0,95,0.00,,,0.00,Wunderground v.1.15,2013-10-22 05:40:00,
2013-10-22 01:45:00,51.9,50.5,30.10,SSE,158,0.0,5.0,95,0.00,,,0.00,Wunderground v.1.15,2013-10-22 05:45:00,
2013-10-22 01:50:00,51.9,50.5,30.11,SSE,158,0.0,5.0,95,0.00,,,0.00,Wunderground v.1.15,2013-10-22 05:50:00,
2013-10-22 01:55:00,51.9,50.5,30.11,SSE,158,0.0,5.0,95,0.00,,,0.00,Wunderground v.1.15,2013-10-22 05:55:00,
2013-10-22 02:05:00,51.9,50.5,30.11,SSE,158,0.0,5.0,95,0.00,,,0.00,Wunderground v.1.15,2013-10-22 06:05:00,
2013-10-22 02:10:00,51.9,50.5,30.11,SSE,158,0.0,5.0,95,0.00,,,0.00,Wunderground v.1.15,2013-10-22 06:10:00,
2013-10-22 02:15:00,51.8,50.4,30.11,SSE,158,0.0,5.0,95,0.00,,,0.00,Wunderground v.1.15,2013-10-22 06:15:00,
2013-10-22 02:20:00,51.8,50.4,30.11,SSE,158,0.0,5.0,95,0.00,,,0.00,Wunderground v.1.15,2013-10-22 06:20:00,
2013-10-22 02:30:00,52.0,50.6,30.10,SSE,158,0.0,5.0,95,0.00,,,0.00,Wunderground v.1.15,2013-10-22 06:30:00,
2013-10-22 02:35:00,52.1,50.7,30.10,SSE,158,0.0,5.0,95,0.00,,,0.00,Wunderground v.1.15,2013-10-22 06:35:00,
2013-10-22 02:40:00,52.2,50.5,30.10,SSE,158,0.0,5.0,94,0.00,,,0.00,Wunderground v.1.15,2013-10-22 06:40:00,
2013-10-22 02:45:00,52.2,50.5,30.10,SSE,158,0.0,5.0,94,0.00,,,0.00,Wunderground v.1.15,2013-10-22 06:45:00,
2013-10-22 02:50:00,52.3,50.6,30.10,SSE,158,0.0,5.0,94,0.00,,,0.00,Wunderground v.1.15,2013-10-22 06:50:00,
2013-10-22 02:55:00,52.3,50.6,30.09,SSE,158,0.0,5.0,94,0.00,,,0.00,Wunderground v.1.15,2013-10-22 06:55:00,
2013-10-22 03:05:00,52.2,50.5,30.09,SSE,158,0.0,5.0,94,0.00,,,0.00,Wunderground v.1.15,2013-10-22 07:05:00,
2013-10-22 03:10:00,52.2,50.5,30.09,SSE,158,0.0,5.0,94,0.00,,,0.00,Wunderground v.1.15,2013-10-22 07:10:00,
2013-10-22 03:15:00,52.1,50.4,30.10,SSE,158,0.0,5.0,94,0.00,,,0.00,Wunderground v.1.15,2013-10-22 07:15:00,
2013-10-22 03:20:00,52.0,50.3,30.09,SSE,158,0.0,5.0,94,0.00,,,0.00,Wunderground v.1.15,2013-10-22 07:20:00,
2013-10-22 03:30:00,51.9,50.2,30.09,SSE,158,0.0,5.0,94,0.00,,,0.00,Wunderground v.1.15,2013-10-22 07:30:00,
2013-10-22 03:35:00,51.9,50.2,30.09,SSE,158,0.0,5.0,94,0.00,,,0.00,Wunderground v.1.15,2013-10-22 07:35:00,
2013-10-22 03:40:00,51.9,50.2,30.09,SSE,158,0.0,5.0,94,0.00,,,0.00,Wunderground v.1.15,2013-10-22 07:40:00,
2013-10-22 03:45:00,51.9,50.2,30.09,SSE,158,0.0,5.0,94,0.00,,,0.00,Wunderground v.1.15,2013-10-22 07:45:00,
2013-10-22 03:50:00,52.0,50.3,30.09,SSE,158,0.0,5.0,94,0.00,,,0.00,Wunderground v.1.15,2013-10-22 07:50:00,
2013-10-22 03:55:00,52.1,50.1,30.08,SSE,158,0.0,5.0,93,0.00,,,0.00,Wunderground v.1.15,2013-10-22 07:55:00,
2013-10-22 04:05:00,52.3,50.3,30.08,SSE,158,0.0,5.0,93,0.00,,,0.00,Wunderground v.1.15,2013-10-22 08:05:00,
2013-10-22 04:15:00,52.4,49.8,30.08,SSE,158,0.0,5.0,91,0.00,,,0.00,Wunderground v.1.15,2013-10-22 08:15:00,
2013-10-22 04:20:00,52.5,49.9,30.08,SSE,158,0.0,5.0,91,0.00,,,0.00,Wunderground v.1.15,2013-10-22 08:20:00,
2013-10-22 04:25:00,52.6,50.0,30.07,SSE,158,0.0,5.0,91,0.00,,,0.00,Wunderground v.1.15,2013-10-22 08:25:00,
2013-10-22 04:30:00,52.7,49.8,30.07,SSE,158,0.0,5.0,90,0.00,,,0.00,Wunderground v.1.15,2013-10-22 08:30:00,
2013-10-22 04:35:00,52.7,49.8,30.06,SSE,158,0.0,5.0,90,0.00,,,0.00,Wunderground v.1.15,2013-10-22 08:35:00,
2013-10-22 04:40:00,52.7,49.8,30.06,SSE,158,0.0,5.0,90,0.00,,,0.00,Wunderground v.1.15,2013-10-22 08:40:00,
2013-10-22 04:45:00,52.8,49.6,30.06,SSE,158,0.0,5.0,89,0.00,,,0.00,Wunderground v.1.15,2013-10-22 08:45:00,
2013-10-22 04:50:00,52.8,49.3,30.06,SSE,158,0.0,5.0,88,0.00,,,0.00,Wunderground v.1.15,2013-10-22 08:50:00,
2013-10-22 04:55:00,52.9,49.4,30.06,SSE,158,0.0,5.0,88,0.00,,,0.00,Wunderground v.1.15,2013-10-22 08:55:00,
2013-10-22 05:05:00,53.1,49.3,30.06,SSE,158,0.0,5.0,87,0.00,,,0.00,Wunderground v.1.15,2013-10-22 09:05:00,
2013-10-22 05:10:00,53.1,49.6,30.06,SSE,158,0.0,5.0,88,0.00,,,0.00,Wunderground v.1.15,2013-10-22 09:10:00,
2013-10-22 05:15:00,53.1,49.6,30.06,SSE,158,0.0,5.0,88,0.00,,,0.00,Wunderground v.1.15,2013-10-22 09:15:00,
2013-10-22 05:20:00,53.0,49.8,30.06,SSE,158,0.0,5.0,89,0.00,,,0.00,Wunderground v.1.15,2013-10-22 09:20:00,
2013-10-22 05:25:00,52.8,49.6,30.06,SSE,158,0.0,5.0,89,0.00,,,0.00,Wunderground v.1.15,2013-10-22 09:25:00,
2013-10-22 05:30:00,52.7,49.8,30.06,SSE,158,0.0,5.0,90,0.00,,,0.00,Wunderground v.1.15,2013-10-22 09:30:00,
2013-10-22 05:35:00,52.6,49.4,30.07,SSE,158,0.0,5.0,89,0.00,,,0.00,Wunderground v.1.15,2013-10-22 09:35:00,
2013-10-22 05:40:00,52.5,49.4,30.07,SSE,158,0.0,5.0,89,0.00,,,0.00,Wunderground v.1.15,2013-10-22 09:40:00,
2013-10-22 05:45:00,52.4,49.3,30.07,SSE,158,0.0,5.0,89,0.00,,,0.00,Wunderground v.1.15,2013-10-22 09:45:00,
2013-10-22 05:50:00,52.3,49.5,30.07,SSE,158,0.0,5.0,90,0.00,,,0.00,Wunderground v.1.15,2013-10-22 09:50:00,
2013-10-22 05:55:00,52.2,49.7,30.07,SSE,158,0.0,5.0,91,0.00,,,0.01,Wunderground v.1.15,2013-10-22 09:55:00,
2013-10-22 06:01:00,52.0,49.7,30.07,SSE,158,0.0,5.0,92,0.00,,,0.01,Wunderground v.1.15,2013-10-22 10:01:00,
2013-10-22 06:05:00,51.8,49.3,30.07,SSE,158,0.0,5.0,91,0.00,,,0.01,Wunderground v.1.15,2013-10-22 10:05:00,
2013-10-22 06:10:00,51.7,49.5,30.07,SSE,158,0.0,5.0,92,0.00,,,0.01,Wunderground v.1.15,2013-10-22 10:10:00,
2013-10-22 06:15:00,51.4,49.2,30.07,SSE,158,0.0,5.0,92,0.00,,,0.01,Wunderground v.1.15,2013-10-22 10:15:00,
2013-10-22 06:20:00,51.3,49.1,30.06,SSE,158,0.0,5.0,92,0.00,,,0.01,Wunderground v.1.15,2013-10-22 10:20:00,
2013-10-22 06:25:00,51.3,49.1,30.07,SSE,158,0.0,5.0,92,0.00,,,0.01,Wunderground v.1.15,2013-10-22 10:25:00,
2013-10-22 06:30:00,51.2,49.0,30.06,SSE,158,0.0,5.0,92,0.00,,,0.01,Wunderground v.1.15,2013-10-22 10:30:00,
2013-10-22 06:35:00,51.2,49.2,30.06,SSE,158,0.0,5.0,93,0.00,,,0.01,Wunderground v.1.15,2013-10-22 10:35:00,
2013-10-22 06:40:00,51.1,49.1,30.06,SSE,158,0.0,5.0,93,0.00,,,0.01,Wunderground v.1.15,2013-10-22 10:40:00,
2013-10-22 06:45:00,51.1,49.1,30.06,SSE,158,0.0,5.0,93,0.00,,,0.01,Wunderground v.1.15,2013-10-22 10:45:00,
2013-10-22 06:50:00,51.0,49.3,30.06,SSE,158,0.0,5.0,94,0.00,,,0.01,Wunderground v.1.15,2013-10-22 10:50:00,
2013-10-22 06:55:00,51.0,49.3,30.06,SSE,158,0.0,5.0,94,0.00,,,0.01,Wunderground v.1.15,2013-10-22 10:55:00,
2013-10-22 07:05:00,50.9,49.2,30.06,SSE,158,0.0,5.0,94,0.00,,,0.01,Wunderground v.1.15,2013-10-22 11:05:00,
2013-10-22 07:10:00,50.9,49.2,30.06,SSE,158,0.0,5.0,94,0.00,,,0.01,Wunderground v.1.15,2013-10-22 11:10:00,
2013-10-22 07:15:00,50.9,49.2,30.05,SSE,158,0.0,5.0,94,0.00,,,0.01,Wunderground v.1.15,2013-10-22 11:15:00,
2013-10-22 07:20:00,50.8,49.1,30.05,SSE,158,0.0,5.0,94,0.00,,,0.01,Wunderground v.1.15,2013-10-22 11:20:00,
2013-10-22 07:25:00,50.8,49.1,30.05,SSE,158,0.0,5.0,94,0.00,,,0.01,Wunderground v.1.15,2013-10-22 11:25:00,
2013-10-22 07:30:00,50.8,49.1,30.06,SSE,158,0.0,5.0,94,0.00,,,0.01,Wunderground v.1.15,2013-10-22 11:30:00,
2013-10-22 07:35:00,50.8,49.1,30.05,SSE,158,0.0,5.0,94,0.00,,,0.01,Wunderground v.1.15,2013-10-22 11:35:00,
2013-10-22 07:40:00,50.8,49.1,30.06,SSE,158,0.0,5.0,94,0.00,,,0.01,Wunderground v.1.15,2013-10-22 11:40:00,
2013-10-22 07:45:00,50.8,49.1,30.06,SSE,158,0.0,5.0,94,0.00,,,0.01,Wunderground v.1.15,2013-10-22 11:45:00,
2013-10-22 07:50:00,50.7,48.7,30.06,SSE,158,0.0,5.0,93,0.00,,,0.01,Wunderground v.1.15,2013-10-22 11:50:00,
2013-10-22 07:55:00,50.8,48.8,30.06,SSE,158,0.0,5.0,93,0.00,,,0.01,Wunderground v.1.15,2013-10-22 11:55:00,
2013-10-22 08:01:00,50.9,48.7,30.05,SSE,158,0.0,5.0,92,0.00,,,0.01,Wunderground v.1.15,2013-10-22 12:01:00,
2013-10-22 08:05:00,51.1,48.9,30.05,SSE,158,0.0,5.0,92,0.00,,,0.01,Wunderground v.1.15,2013-10-22 12:05:00,
2013-10-22 08:10:00,51.2,49.0,30.05,SSE,158,0.0,5.0,92,0.00,,,0.01,Wunderground v.1.15,2013-10-22 12:10:00,
2013-10-22 08:20:00,51.2,49.2,30.06,SSE,158,0.0,5.0,93,0.00,,,0.01,Wunderground v.1.15,2013-10-22 12:20:00,
2013-10-22 08:25:00,51.2,49.2,30.06,SSE,158,0.0,5.0,93,0.00,,,0.01,Wunderground v.1.15,2013-10-22 12:25:00,
2013-10-22 08:30:00,51.2,49.2,30.06,SSE,158,0.0,5.0,93,0.00,,,0.01,Wunderground v.1.15,2013-10-22 12:30:00,
2013-10-22 08:35:00,51.2,49.2,30.06,SSE,158,0.0,5.0,93,0.00,,,0.01,Wunderground v.1.15,2013-10-22 12:35:00,
2013-10-22 08:40:00,51.2,49.0,30.06,SSE,158,0.0,5.0,92,0.00,,,0.01,Wunderground v.1.15,2013-10-22 12:40:00,
2013-10-22 08:45:00,51.3,48.8,30.06,SSE,158,0.0,5.0,91,0.00,,,0.01,Wunderground v.1.15,2013-10-22 12:45:00,
2013-10-22 08:50:00,51.4,49.2,30.06,SSE,158,0.0,5.0,92,0.00,,,0.01,Wunderground v.1.15,2013-10-22 12:50:00,
2013-10-22 08:55:00,51.5,49.3,30.06,SSE,158,0.0,5.0,92,0.00,,,0.01,Wunderground v.1.15,2013-10-22 12:55:00,
2013-10-22 09:01:00,51.5,49.3,30.07,SSE,158,0.0,5.0,92,0.00,,,0.01,Wunderground v.1.15,2013-10-22 13:01:00,
2013-10-22 09:05:00,51.6,49.4,30.07,SSE,158,0.0,5.0,92,0.00,,,0.01,Wunderground v.1.15,2013-10-22 13:05:00,
2013-10-22 09:10:00,51.7,49.7,30.06,SSE,158,0.0,5.0,93,0.00,,,0.01,Wunderground v.1.15,2013-10-22 13:10:00,
2013-10-22 09:15:00,51.9,49.6,30.07,SSE,158,0.0,5.0,92,0.00,,,0.01,Wunderground v.1.15,2013-10-22 13:15:00,
2013-10-22 09:20:00,52.1,49.8,30.06,SSE,158,0.0,5.0,92,0.00,,,0.01,Wunderground v.1.15,2013-10-22 13:20:00,
2013-10-22 09:30:00,52.5,49.7,30.07,SSE,158,0.0,5.0,90,0.00,,,0.01,Wunderground v.1.15,2013-10-22 13:30:00,
2013-10-22 09:35:00,52.8,50.2,30.06,SSE,158,0.0,5.0,91,0.00,,,0.01,Wunderground v.1.15,2013-10-22 13:35:00,
2013-10-22 09:40:00,53.2,50.6,30.06,SSE,158,0.0,5.0,91,0.00,,,0.01,Wunderground v.1.15,2013-10-22 13:40:00,
2013-10-22 09:45:00,53.5,50.9,30.06,SSE,158,0.0,5.0,91,0.00,,,0.01,Wunderground v.1.15,2013-10-22 13:45:00,
2013-10-22 09:50:00,53.7,49.9,30.06,SSE,158,0.0,5.0,87,0.00,,,0.01,Wunderground v.1.15,2013-10-22 13:50:00,
2013-10-22 09:55:00,54.0,49.9,30.07,SSE,158,0.0,5.0,86,0.00,,,0.01,Wunderground v.1.15,2013-10-22 13:55:00,
2013-10-22 10:01:00,54.4,50.6,30.06,SSE,158,0.0,5.0,87,0.00,,,0.01,Wunderground v.1.15,2013-10-22 14:01:00,
2013-10-22 10:05:00,54.6,50.2,30.06,SSE,158,0.0,5.0,85,0.00,,,0.01,Wunderground v.1.15,2013-10-22 14:05:00,
2013-10-22 10:10:00,55.1,51.0,30.06,SSE,158,0.0,5.0,86,0.00,,,0.01,Wunderground v.1.15,2013-10-22 14:10:00,
2013-10-22 10:15:00,55.6,50.2,30.06,SSE,158,0.0,5.0,82,0.00,,,0.01,Wunderground v.1.15,2013-10-22 14:15:00,
2013-10-22 10:20:00,55.8,49.7,30.07,SSE,158,0.0,5.0,80,0.00,,,0.01,Wunderground v.1.15,2013-10-22 14:20:00,
2013-10-22 10:25:00,55.9,50.2,30.06,SSE,158,0.0,5.0,81,0.00,,,0.01,Wunderground v.1.15,2013-10-22 14:25:00,
2013-10-22 10:30:00,56.0,50.3,30.06,North,5,0.0,5.0,81,0.00,,,0.01,Wunderground v.1.15,2013-10-22 14:30:00,
2013-10-22 10:35:00,56.1,50.7,30.05,North,5,0.0,5.0,82,0.00,,,0.01,Wunderground v.1.15,2013-10-22 14:35:00,
2013-10-22 10:40:00,56.1,50.3,30.06,NW,325,0.0,5.0,81,0.00,,,0.01,Wunderground v.1.15,2013-10-22 14:40:00,
2013-10-22 10:45:00,55.9,50.5,30.05,WSW,255,0.0,5.0,82,0.00,,,0.01,Wunderground v.1.15,2013-10-22 14:45:00,
2013-10-22 10:50:00,55.8,50.7,30.05,WSW,255,0.0,5.0,83,0.00,,,0.01,Wunderground v.1.15,2013-10-22 14:50:00,
2013-10-22 10:55:00,55.9,50.8,30.05,WSW,238,0.0,5.0,83,0.00,,,0.01,Wunderground v.1.15,2013-10-22 14:55:00,
2013-10-22 11:05:00,56.0,50.9,30.05,ENE,65,1.0,5.0,83,0.00,,,0.01,Wunderground v.1.15,2013-10-22 15:05:00,
2013-10-22 11:10:00,56.2,50.8,30.05,ENE,65,0.0,5.0,82,0.00,,,0.01,Wunderground v.1.15,2013-10-22 15:10:00,
2013-10-22 11:15:00,56.2,50.4,30.05,ESE,109,0.0,5.0,81,0.00,,,0.01,Wunderground v.1.15,2013-10-22 15:15:00,
2013-10-22 11:20:00,56.0,49.9,30.05,ESE,109,1.0,5.0,80,0.00,,,0.01,Wunderground v.1.15,2013-10-22 15:20:00,
2013-10-22 11:25:00,55.9,50.2,30.04,ESE,109,0.0,5.0,81,0.00,,,0.01,Wunderground v.1.15,2013-10-22 15:25:00,
2013-10-22 11:30:00,56.0,49.9,30.04,NE,47,0.0,5.0,80,0.00,,,0.01,Wunderground v.1.15,2013-10-22 15:30:00,
2013-10-22 11:35:00,56.1,50.0,30.03,NE,47,0.0,5.0,80,0.00,,,0.01,Wunderground v.1.15,2013-10-22 15:35:00,
2013-10-22 11:40:00,56.0,49.6,30.03,SE,127,0.0,5.0,79,0.00,,,0.01,Wunderground v.1.15,2013-10-22 15:40:00,
2013-10-22 11:45:00,56.3,50.2,30.03,South,186,0.0,5.0,80,0.00,,,0.01,Wunderground v.1.15,2013-10-22 15:45:00,
2013-10-22 11:50:00,57.1,51.0,30.03,South,176,0.0,5.0,80,0.00,,,0.01,Wunderground v.1.15,2013-10-22 15:50:00,
2013-10-22 11:55:00,58.0,51.2,30.02,SSW,192,1.0,5.0,78,0.00,,,0.01,Wunderground v.1.15,2013-10-22 15:55:00,
2013-10-22 12:01:00,58.3,51.5,30.02,SSW,196,1.0,1.0,78,0.00,,,0.01,Wunderground v.1.15,2013-10-22 16:01:00,
2013-10-22 12:10:00,59.0,51.8,30.02,SSW,196,1.0,5.0,77,0.00,,,0.01,Wunderground v.1.15,2013-10-22 16:10:00,
2013-10-22 12:15:00,59.2,51.6,30.02,SSW,196,1.0,1.0,76,0.00,,,0.01,Wunderground v.1.15,2013-10-22 16:15:00,
2013-10-22 12:20:00,59.5,51.9,30.01,South,169,1.0,5.0,76,0.00,,,0.01,Wunderground v.1.15,2013-10-22 16:20:00,
2013-10-22 12:25:00,59.7,51.8,30.01,South,169,0.0,5.0,75,0.00,,,0.01,Wunderground v.1.15,2013-10-22 16:25:00,
2013-10-22 12:30:00,60.1,51.8,30.01,South,169,1.0,5.0,74,0.00,,,0.01,Wunderground v.1.15,2013-10-22 16:30:00,
2013-10-22 12:35:00,60.5,51.4,30.01,SSE,163,1.0,5.0,72,0.00,,,0.01,Wunderground v.1.15,2013-10-22 16:35:00,
2013-10-22 12:40:00,61.1,52.0,30.01,NW,309,1.0,5.0,72,0.00,,,0.01,Wunderground v.1.15,2013-10-22 16:40:00,
2013-10-22 12:45:00,62.0,52.5,30.01,East,80,1.0,5.0,71,0.00,,,0.01,Wunderground v.1.15,2013-10-22 16:45:00,
2013-10-22 12:50:00,62.2,51.5,30.00,South,173,1.0,5.0,68,0.00,,,0.01,Wunderground v.1.15,2013-10-22 16:50:00,
2013-10-22 12:55:00,62.0,51.3,30.00,WSW,245,1.0,5.0,68,0.00,,,0.01,Wunderground v.1.15,2013-10-22 16:55:00,
2013-10-22 13:01:00,61.7,51.4,29.99,SSE,159,1.0,1.0,69,0.00,,,0.01,Wunderground v.1.15,2013-10-22 17:01:00,
2013-10-22 13:10:00,62.2,51.1,29.99,WSW,254,1.0,5.0,67,0.00,,,0.01,Wunderground v.1.15,2013-10-22 17:10:00,
2013-10-22 13:15:00,62.7,52.0,29.99,SSE,162,1.0,1.0,68,0.00,,,0.01,Wunderground v.1.15,2013-10-22 17:15:00,
2013-10-22 13:20:00,62.8,51.7,29.99,SSE,162,1.0,2.0,67,0.00,,,0.01,Wunderground v.1.15,2013-10-22 17:20:00,
2013-10-22 13:25:00,62.9,51.4,29.98,SW,219,1.0,1.0,66,0.00,,,0.01,Wunderground v.1.15,2013-10-22 17:25:00,
2013-10-22 13:30:00,62.9,52.2,29.98,SW,215,0.0,5.0,68,0.00,,,0.01,Wunderground v.1.15,2013-10-22 17:30:00,
2013-10-22 13:35:00,62.8,51.7,29.98,ESE,119,1.0,5.0,67,0.00,,,0.01,Wunderground v.1.15,2013-10-22 17:35:00,
2013-10-22 13:40:00,62.9,51.8,29.97,North,5,1.0,5.0,67,0.00,,,0.01,Wunderground v.1.15,2013-10-22 17:40:00,
2013-10-22 13:45:00,63.3,51.7,29.97,South,173,1.0,5.0,66,0.00,,,0.01,Wunderground v.1.15,2013-10-22 17:45:00,
2013-10-22 13:50:00,63.6,51.6,29.97,NW,313,2.0,5.0,65,0.00,,,0.01,Wunderground v.1.15,2013-10-22 17:50:00,
2013-10-22 13:55:00,63.7,51.3,29.96,SSW,194,2.0,2.0,64,0.00,,,0.01,Wunderground v.1.15,2013-10-22 17:55:00,
2013-10-22 14:05:00,63.6,51.6,29.96,NNW,342,2.0,2.0,65,0.00,,,0.01,Wunderground v.1.15,2013-10-22 18:05:00,
2013-10-22 14:10:00,63.9,51.9,29.95,SSW,208,2.0,5.0,65,0.00,,,0.01,Wunderground v.1.15,2013-10-22 18:10:00,
2013-10-22 14:15:00,64.0,52.0,29.95,SSW,208,1.0,5.0,65,0.00,,,0.01,Wunderground v.1.15,2013-10-22 18:15:00,
2013-10-22 14:20:00,63.8,51.0,29.95,NW,309,1.0,5.0,63,0.00,,,0.01,Wunderground v.1.15,2013-10-22 18:20:00,
2013-10-22 14:25:00,63.6,50.8,29.95,WSW,253,1.0,1.0,63,0.00,,,0.01,Wunderground v.1.15,2013-10-22 18:25:00,
2013-10-22 14:30:00,63.6,50.8,29.94,SSE,148,1.0,5.0,63,0.00,,,0.01,Wunderground v.1.15,2013-10-22 18:30:00,
2013-10-22 14:35:00,63.9,51.9,29.94,SSE,148,0.0,5.0,65,0.00,,,0.01,Wunderground v.1.15,2013-10-22 18:35:00,
2013-10-22 14:40:00,64.0,51.1,29.94,SSE,148,0.0,5.0,63,0.00,,,0.01,Wunderground v.1.15,2013-10-22 18:40:00,
2013-10-22 14:45:00,63.8,51.0,29.94,West,275,0.0,5.0,63,0.00,,,0.01,Wunderground v.1.15,2013-10-22 18:45:00,
2013-10-22 14:50:00,63.5,50.7,29.94,WSW,254,1.0,5.0,63,0.00,,,0.01,Wunderground v.1.15,2013-10-22 18:50:00,
2013-10-22 14:55:00,63.2,51.2,29.94,ENE,59,1.0,1.0,65,0.00,,,0.01,Wunderground v.1.15,2013-10-22 18:55:00,
2013-10-22 15:05:00,62.9,51.4,29.94,West,275,1.0,1.0,66,0.00,,,0.01,Wunderground v.1.15,2013-10-22 19:05:00,
2013-10-22 15:10:00,62.7,51.2,29.94,WSW,246,1.0,5.0,66,0.00,,,0.01,Wunderground v.1.15,2013-10-22 19:10:00,
2013-10-22 15:15:00,62.6,51.5,29.94,SSW,200,0.0,5.0,67,0.00,,,0.01,Wunderground v.1.15,2013-10-22 19:15:00,
2013-10-22 15:20:00,62.3,51.2,29.94,SSW,200,0.0,5.0,67,0.00,,,0.01,Wunderground v.1.15,2013-10-22 19:20:00,
2013-10-22 15:25:00,62.2,51.5,29.94,SSW,200,0.0,5.0,68,0.00,,,0.01,Wunderground v.1.15,2013-10-22 19:25:00,
2013-10-22 15:30:00,62.1,51.8,29.94,SSW,200,0.0,5.0,69,0.00,,,0.01,Wunderground v.1.15,2013-10-22 19:30:00,
2013-10-22 15:35:00,62.2,51.5,29.94,North,5,0.0,5.0,68,0.00,,,0.01,Wunderground v.1.15,2013-10-22 19:35:00,
2013-10-22 15:40:00,62.6,51.1,29.93,WSW,256,0.0,5.0,66,0.00,,,0.01,Wunderground v.1.15,2013-10-22 19:40:00,
2013-10-22 15:45:00,62.7,51.2,29.93,WSW,256,0.0,5.0,66,0.00,,,0.01,Wunderground v.1.15,2013-10-22 19:45:00,
2013-10-22 15:50:00,62.9,51.4,29.93,SSE,148,1.0,5.0,66,0.00,,,0.01,Wunderground v.1.15,2013-10-22 19:50:00,
2013-10-22 15:55:00,63.0,51.0,29.93,WNW,290,1.0,1.0,65,0.00,,,0.01,Wunderground v.1.15,2013-10-22 19:55:00,
2013-10-22 16:01:00,62.9,50.5,29.93,SSE,148,1.0,1.0,64,0.00,,,0.01,Wunderground v.1.15,2013-10-22 20:01:00,
2013-10-22 16:05:00,62.9,51.8,29.93,SSE,167,1.0,5.0,67,0.00,,,0.01,Wunderground v.1.15,2013-10-22 20:05:00,
2013-10-22 16:10:00,62.7,51.2,29.93,SSE,149,1.0,5.0,66,0.00,,,0.01,Wunderground v.1.15,2013-10-22 20:10:00,
2013-10-22 16:15:00,62.8,51.7,29.93,SSE,148,1.0,1.0,67,0.00,,,0.01,Wunderground v.1.15,2013-10-22 20:15:00,
2013-10-22 16:20:00,63.0,51.9,29.93,SSE,148,1.0,5.0,67,0.00,,,0.01,Wunderground v.1.15,2013-10-22 20:20:00,
2013-10-22 16:25:00,62.9,51.0,29.92,SSW,206,0.0,5.0,65,0.00,,,0.01,Wunderground v.1.15,2013-10-22 20:25:00,
2013-10-22 16:30:00,62.6,51.1,29.92,SSW,209,0.0,5.0,66,0.00,,,0.01,Wunderground v.1.15,2013-10-22 20:30:00,
2013-10-22 16:40:00,62.5,50.6,29.92,SSW,210,0.0,5.0,65,0.00,,,0.01,Wunderground v.1.15,2013-10-22 20:40:00,
2013-10-22 16:45:00,62.5,51.4,29.92,SSW,210,0.0,5.0,67,0.00,,,0.01,Wunderground v.1.15,2013-10-22 20:45:00,
2013-10-22 16:50:00,62.6,51.9,29.92,SSW,210,0.0,5.0,68,0.00,,,0.01,Wunderground v.1.15,2013-10-22 20:50:00,
2013-10-22 16:55:00,62.5,51.4,29.92,SSW,210,0.0,5.0,67,0.00,,,0.01,Wunderground v.1.15,2013-10-22 20:55:00,
2013-10-22 17:05:00,61.7,50.6,29.92,SSW,213,0.0,5.0,67,0.00,,,0.01,Wunderground v.1.15,2013-10-22 21:05:00,
2013-10-22 17:10:00,61.3,50.2,29.92,SSW,213,0.0,5.0,67,0.00,,,0.01,Wunderground v.1.15,2013-10-22 21:10:00,
2013-10-22 17:15:00,60.7,49.7,29.92,SE,144,0.0,5.0,67,0.00,,,0.01,Wunderground v.1.15,2013-10-22 21:15:00,
2013-10-22 17:20:00,60.3,48.9,29.92,SE,144,1.0,5.0,66,0.00,,,0.01,Wunderground v.1.15,2013-10-22 21:20:00,
2013-10-22 17:25:00,59.9,48.9,29.92,SE,144,1.0,1.0,67,0.00,,,0.01,Wunderground v.1.15,2013-10-22 21:25:00,
2013-10-22 17:30:00,59.6,49.0,29.91,SE,144,0.0,5.0,68,0.00,,,0.01,Wunderground v.1.15,2013-10-22 21:30:00,
2013-10-22 17:35:00,59.3,49.1,29.91,SE,144,0.0,5.0,69,0.00,,,0.01,Wunderground v.1.15,2013-10-22 21:35:00,
2013-10-22 17:40:00,59.1,48.9,29.91,SE,144,0.0,5.0,69,0.00,,,0.01,Wunderground v.1.15,2013-10-22 21:40:00,
2013-10-22 17:45:00,58.9,48.7,29.91,SE,144,0.0,5.0,69,0.00,,,0.01,Wunderground v.1.15,2013-10-22 21:45:00,
2013-10-22 17:50:00,58.7,48.6,29.92,SE,144,0.0,5.0,69,0.00,,,0.01,Wunderground v.1.15,2013-10-22 21:50:00,
2013-10-22 17:55:00,58.6,48.8,29.92,SE,144,0.0,5.0,70,0.00,,,0.01,Wunderground v.1.15,2013-10-22 21:55:00,
2013-10-22 18:05:00,58.2,48.8,29.92,SE,144,1.0,1.0,71,0.00,,,0.01,Wunderground v.1.15,2013-10-22 22:05:00,
2013-10-22 18:10:00,58.0,48.6,29.92,SE,144,0.0,5.0,71,0.00,,,0.01,Wunderground v.1.15,2013-10-22 22:10:00,
2013-10-22 18:15:00,57.9,48.9,29.92,SE,144,0.0,5.0,72,0.00,,,0.01,Wunderground v.1.15,2013-10-22 22:15:00,
2013-10-22 18:20:00,57.8,48.5,29.92,SE,144,0.0,5.0,71,0.00,,,0.01,Wunderground v.1.15,2013-10-22 22:20:00,
2013-10-22 18:30:00,57.5,48.5,29.91,SE,144,0.0,5.0,72,0.00,,,0.01,Wunderground v.1.15,2013-10-22 22:30:00,
2013-10-22 18:35:00,57.3,48.3,29.91,SE,144,0.0,5.0,72,0.00,,,0.01,Wunderground v.1.15,2013-10-22 22:35:00,
2013-10-22 18:45:00,57.1,48.5,29.91,SE,144,0.0,5.0,73,0.00,,,0.01,Wunderground v.1.15,2013-10-22 22:45:00,
2013-10-22 18:50:00,56.9,48.3,29.91,SE,144,0.0,5.0,73,0.00,,,0.01,Wunderground v.1.15,2013-10-22 22:50:00,
2013-10-22 18:55:00,56.7,48.1,29.91,SE,144,1.0,5.0,73,0.00,,,0.01,Wunderground v.1.15,2013-10-22 22:55:00,
2013-10-22 19:05:00,56.4,48.2,29.91,SE,144,1.0,5.0,74,0.00,,,0.01,Wunderground v.1.15,2013-10-22 23:05:00,
2013-10-22 19:10:00,56.3,48.1,29.92,SE,144,1.0,5.0,74,0.00,,,0.01,Wunderground v.1.15,2013-10-22 23:10:00,
2013-10-22 19:15:00,56.2,48.0,29.92,SE,144,1.0,5.0,74,0.00,,,0.01,Wunderground v.1.15,2013-10-22 23:15:00,
2013-10-22 19:20:00,56.1,47.9,29.92,SE,144,1.0,5.0,74,0.00,,,0.01,Wunderground v.1.15,2013-10-22 23:20:00,
2013-10-22 19:25:00,56.1,47.9,29.92,SE,144,1.0,1.0,74,0.00,,,0.01,Wunderground v.1.15,2013-10-22 23:25:00,
2013-10-22 19:30:00,56.0,47.8,29.92,SE,144,1.0,5.0,74,0.00,,,0.01,Wunderground v.1.15,2013-10-22 23:30:00,
2013-10-22 19:35:00,55.9,48.1,29.92,SE,144,1.0,1.0,75,0.00,,,0.01,Wunderground v.1.15,2013-10-22 23:35:00,
2013-10-22 19:40:00,55.8,48.0,29.92,SE,144,0.0,5.0,75,0.00,,,0.01,Wunderground v.1.15,2013-10-22 23:40:00,
2013-10-22 19:45:00,55.7,47.9,29.92,SE,144,0.0,5.0,75,0.00,,,0.01,Wunderground v.1.15,2013-10-22 23:45:00,
2013-10-22 19:50:00,55.7,47.9,29.92,SE,144,0.0,5.0,75,0.00,,,0.01,Wunderground v.1.15,2013-10-22 23:50:00,
2013-10-22 19:55:00,55.5,48.1,29.92,SE,144,0.0,5.0,76,0.00,,,0.01,Wunderground v.1.15,2013-10-22 23:55:00,
2013-10-22 20:01:00,55.4,48.3,29.92,SE,144,0.0,5.0,77,0.00,,,0.01,Wunderground v.1.15,2013-10-23 00:01:00,
2013-10-22 20:05:00,55.3,48.2,29.92,SE,144,0.0,5.0,77,0.00,,,0.01,Wunderground v.1.15,2013-10-23 00:05:00,
2013-10-22 20:10:00,55.2,48.1,29.92,SE,144,0.0,5.0,77,0.00,,,0.01,Wunderground v.1.15,2013-10-23 00:10:00,
2013-10-22 20:15:00,55.2,47.8,29.92,SE,144,0.0,5.0,76,0.00,,,0.01,Wunderground v.1.15,2013-10-23 00:15:00,
2013-10-22 20:20:00,55.3,48.2,29.92,SE,144,0.0,5.0,77,0.00,,,0.01,Wunderground v.1.15,2013-10-23 00:20:00,
2013-10-22 20:30:00,55.4,48.3,29.92,SE,144,0.0,5.0,77,0.00,,,0.01,Wunderground v.1.15,2013-10-23 00:30:00,
2013-10-22 20:35:00,55.4,48.3,29.92,SE,144,0.0,5.0,77,0.00,,,0.01,Wunderground v.1.15,2013-10-23 00:35:00,
2013-10-22 20:40:00,55.4,48.3,29.92,SE,144,0.0,5.0,77,0.00,,,0.01,Wunderground v.1.15,2013-10-23 00:40:00,
2013-10-22 20:45:00,55.3,48.2,29.92,SE,144,0.0,5.0,77,0.00,,,0.01,Wunderground v.1.15,2013-10-23 00:45:00,
2013-10-22 20:50:00,55.3,48.2,29.92,SE,144,0.0,5.0,77,0.00,,,0.01,Wunderground v.1.15,2013-10-23 00:50:00,
2013-10-22 20:55:00,55.3,48.2,29.92,SE,144,0.0,5.0,77,0.00,,,0.01,Wunderground v.1.15,2013-10-23 00:55:00,
2013-10-22 21:05:00,55.3,48.2,29.92,ENE,71,1.0,1.0,77,0.00,,,0.01,Wunderground v.1.15,2013-10-23 01:05:00,
2013-10-22 21:10:00,55.2,48.5,29.92,SE,126,0.0,2.0,78,0.00,,,0.01,Wunderground v.1.15,2013-10-23 01:10:00,
2013-10-22 21:15:00,55.2,48.5,29.92,SE,126,1.0,5.0,78,0.00,,,0.01,Wunderground v.1.15,2013-10-23 01:15:00,
2013-10-22 21:20:00,55.1,48.4,29.92,SE,126,1.0,5.0,78,0.00,,,0.01,Wunderground v.1.15,2013-10-23 01:20:00,
2013-10-22 21:25:00,55.0,48.3,29.92,SE,126,0.0,5.0,78,0.00,,,0.01,Wunderground v.1.15,2013-10-23 01:25:00,
2013-10-22 21:30:00,54.9,48.5,29.92,SE,126,0.0,5.0,79,0.00,,,0.01,Wunderground v.1.15,2013-10-23 01:30:00,
2013-10-22 21:35:00,54.8,48.4,29.92,SE,126,0.0,5.0,79,0.00,,,0.01,Wunderground v.1.15,2013-10-23 01:35:00,
2013-10-22 21:40:00,54.6,48.2,29.92,SE,126,0.0,5.0,79,0.00,,,0.01,Wunderground v.1.15,2013-10-23 01:40:00,
2013-10-22 21:45:00,54.4,48.4,29.92,SE,126,0.0,5.0,80,0.00,,,0.01,Wunderground v.1.15,2013-10-23 01:45:00,
2013-10-22 21:50:00,54.1,48.1,29.92,SE,126,0.0,5.0,80,0.00,,,0.01,Wunderground v.1.15,2013-10-23 01:50:00,
2013-10-22 21:55:00,53.9,48.2,29.92,SE,126,0.0,5.0,81,0.00,,,0.01,Wunderground v.1.15,2013-10-23 01:55:00,
2013-10-22 22:01:00,53.7,48.3,29.92,ESE,123,0.0,5.0,82,0.00,,,0.01,Wunderground v.1.15,2013-10-23 02:01:00,
2013-10-22 22:10:00,53.4,48.4,29.92,ESE,123,0.0,5.0,83,0.00,,,0.01,Wunderground v.1.15,2013-10-23 02:10:00,
2013-10-22 22:15:00,53.2,48.5,29.92,ESE,123,0.0,5.0,84,0.00,,,0.01,Wunderground v.1.15,2013-10-23 02:15:00,
2013-10-22 22:20:00,53.1,48.4,29.92,ESE,123,0.0,5.0,84,0.00,,,0.01,Wunderground v.1.15,2013-10-23 02:20:00,
2013-10-22 22:25:00,52.9,48.2,29.91,ESE,123,0.0,5.0,84,0.00,,,0.01,Wunderground v.1.15,2013-10-23 02:25:00,
2013-10-22 22:30:00,52.8,48.1,29.91,ESE,123,0.0,5.0,84,0.00,,,0.01,Wunderground v.1.15,2013-10-23 02:30:00,
2013-10-22 22:35:00,52.6,48.2,29.91,ESE,123,0.0,5.0,85,0.00,,,0.01,Wunderground v.1.15,2013-10-23 02:35:00,
2013-10-22 22:40:00,52.4,48.0,29.91,ESE,123,0.0,5.0,85,0.00,,,0.01,Wunderground v.1.15,2013-10-23 02:40:00,
2013-10-22 22:45:00,52.2,48.1,29.91,ESE,123,0.0,5.0,86,0.00,,,0.01,Wunderground v.1.15,2013-10-23 02:45:00,
2013-10-22 22:50:00,52.1,48.0,29.91,ESE,123,0.0,5.0,86,0.00,,,0.01,Wunderground v.1.15,2013-10-23 02:50:00,
2013-10-22 22:55:00,51.9,47.8,29.91,ESE,123,0.0,5.0,86,0.00,,,0.01,Wunderground v.1.15,2013-10-23 02:55:00,
2013-10-22 23:01:00,51.8,48.1,29.91,ESE,123,0.0,5.0,87,0.00,,,0.01,Wunderground v.1.15,2013-10-23 03:01:00,
2013-10-22 23:05:00,51.6,47.9,29.91,ESE,123,0.0,5.0,87,0.00,,,0.01,Wunderground v.1.15,2013-10-23 03:05:00,
2013-10-22 23:10:00,51.4,48.0,29.91,ESE,123,0.0,5.0,88,0.00,,,0.01,Wunderground v.1.15,2013-10-23 03:10:00,
2013-10-22 23:15:00,51.2,47.8,29.91,ESE,123,0.0,5.0,88,0.00,,,0.01,Wunderground v.1.15,2013-10-23 03:15:00,
2013-10-22 23:20:00,51.2,47.8,29.91,ESE,123,0.0,5.0,88,0.00,,,0.01,Wunderground v.1.15,2013-10-23 03:20:00,
2013-10-22 23:25:00,50.9,47.8,29.91,ESE,123,0.0,5.0,89,0.00,,,0.01,Wunderground v.1.15,2013-10-23 03:25:00,
2013-10-22 23:30:00,50.7,47.6,29.90,ESE,123,0.0,5.0,89,0.00,,,0.01,Wunderground v.1.15,2013-10-23 03:30:00,
2013-10-22 23:35:00,50.8,47.7,29.90,ESE,123,0.0,5.0,89,0.00,,,0.01,Wunderground v.1.15,2013-10-23 03:35:00,
2013-10-22 23:40:00,51.0,47.6,29.90,ESE,123,0.0,5.0,88,0.00,,,0.01,Wunderground v.1.15,2013-10-23 03:40:00,
2013-10-22 23:45:00,51.3,47.6,29.90,ESE,123,0.0,5.0,87,0.00,,,0.01,Wunderground v.1.15,2013-10-23 03:45:00,
2013-10-22 23:50:00,51.4,47.7,29.90,ESE,118,0.0,5.0,87,0.00,,,0.01,Wunderground v.1.15,2013-10-23 03:50:00,